This demonstration page uses our WeatherBlox Daily Observations layout. Learn more.

Left ArrowRight Arrow

47.50024, -111.30081

Hourly Observations for May 27, 2021

Temp ( °F °C ) Dew Point ( °F °C ) Humidity (%) Winds ( mph kmh ) Pressure ( in mb ) Visibility ( mi km ) Precip ( " mm )
12:53 am 00:53 Clear 40 4.4 37 2.8 89 89 ESE 5 7 30.18 1022 10 16 0.00 0.00
1:53 am 01:53 Clear 41 5 37 2.8 86 86 S 7 11 30.16 1021 10 16 0.00 0.00
2:53 am 02:53 Clear 41 5 38 3.3 89 89 SSW 9 15 30.15 1021 10 16 0.00 0.00
3:53 am 03:53 Clear 42 5.6 38 3.3 85 85 SSW 9 15 30.13 1020 10 16 0.00 0.00
4:53 am 04:53 Clear 42 5.6 38 3.3 85 85 SSW 10 17 30.11 1020 10 16 0.00 0.00
5:53 am 05:53 Sunny 43 6.1 38 3.3 82 82 SSW 10 17 30.10 1019 10 16 0.00 0.00
6:53 am 06:53 Sunny 47 8.3 41 5 80 80 SSW 10 17 30.09 1019 10 16 0.00 0.00
7:53 am 07:53 Sunny 50 10 42 5.6 74 74 SSW 13 20 30.07 1018 10 16 0.00 0.00
8:53 am 08:53 Sunny 55 12.8 44 6.7 67 67 S 13 20 30.06 1018 10 16 0.00 0.00
9:53 am 09:53 Sunny 60 15.6 42 5.6 52 52 S 15 24 30.03 1017 10 16 0.00 0.00
10:53 am 10:53 Sunny 63 17.2 41 5 45 45 SW 15 24 30.01 1016 10 16 0.00 0.00
11:53 am 11:53 Sunny 66 18.9 40 4.4 39 39 SSW 16 26 29.98 1015 10 16 0.00 0.00
12:53 pm 12:53 Sunny 69 20.6 40 4.4 35 35 SW 14 22 29.95 1014 10 16 0.00 0.00
1:53 pm 13:53 Sunny 68 20 38 3.3 33 33 SW 14 22 29.93 1014 10 16 0.00 0.00
2:53 pm 14:53 Sunny 68 20 38 3.3 33 33 WSW 18 30 29.91 1013 10 16 0.00 0.00
3:53 pm 15:53 Sunny 70 21.1 38 3.3 31 31 SW 21 33 29.88 1012 10 16 0.00 0.00
4:53 pm 16:53 Sunny 72 22.2 36 2.2 27 27 SW 20 31 29.85 1011 10 16 0.00 0.00
5:53 pm 17:53 Sunny 72 22.2 35 1.7 26 26 SSW 13 20 29.83 1010 10 16 0.00 0.00
6:53 pm 18:53 Sunny 69 20.6 38 3.3 32 32 S 8 13 29.81 1010 10 16 0.00 0.00
7:53 pm 19:53 Sunny 68 20 37 2.8 32 32 SSW 10 17 29.79 1009 10 16 0.00 0.00
8:53 pm 20:53 Sunny 61 16.1 38 3.3 43 43 S 8 13 29.78 1009 10 16 0.00 0.00
9:53 pm 21:53 Clear 59 15 38 3.3 46 46 SSE 9 15 29.77 1008 10 16 0.00 0.00
10:53 pm 22:53 Mostly Clear 58 14.4 37 2.8 46 46 S 13 20 29.75 1007 10 16 0.00 0.00
11:53 pm 23:53 Mostly Clear 57 13.9 37 2.8 47 47 SSW 8 13 29.74 1007 10 16 0.00 0.00

Powered by AerisWeather